SCP
0 0 0 0 0 0 0 0 0 0 0 0 0 0 0 0 0 0 0 0 0 0 0 0 0 0 -0 0 0 0 0 0 0 0 0 0 0 0 0 0 -0 -0 -0 -0 0 -0 -0
0 0 0 0 0 0 0 0 0 0 0 0 0 0 0 0 0 0 0 0 0 0 0 0 0 0 0 0 0 0 0 0 0 0 0 0 0 0 0 0 -0 0 -0 0 0 -0 0
0 0 0 0 0 0 0 0 0 0 0 0 0 0 0 0 0 0 0 0 0 0 0 0 0 0 0 0 0 0 0 0 0 -0 0 0 0 0 0 0 0 -0 -0 0 0 0 0
0 0 0 0 0 0 0 0 0 0 0 0 0 0 0 0 0 0 0 0 0 0 0 0 0 0 0 0 0 0 0 0 0 -0 0 0 0 0 0 -0 0 0 -0 -0 -0 -0 0
0 0 0 0 0 0 0 0 0 0 0 0 0 0 0 0 0 0 0 0 0 0 0 0 0 0 0 0 0 0 0 0 0 0 0 0 0 0 0 -0 -0 -0 -0 -0 0 0 0
0 0 0 0 0 0 0 0 0 0 0 0 0 0 0 0 0 0 0 0 0 0 0 0 0 0 0 0 0 0 0 0 0 0 0 0 0 0 0 -0 0 -0 -0 -0 0 -0 0
0 0 0 0 0 0 0 0 0 0 0 0 0 0 0 0 0 0 0 0 0 0 0 0 0 0 0 0 0 0 0 0 0 0 0 0 0 0 0 -0 0 0 0 -0 0 0 0
0 0 0 0 0 0 0 0 0 0 0 0 0 0 0 0 0 0 0 0 0 0 0 0 0 0 -0 0 0 0 0 0 0 0 0 0 -0 0 -0 0 0 0 -0 0 0 0 0
0 0 0 0 0 0 0 0 0 0 0 0 0 0 0 0 0 0 0 0 0 0 0 -0 0 0 0 0 0 0 0 0 0 0 0 0 0 0 -0 0 0 0 -0 0 0 0 0
0 0 0 0 0 0 0 0 0 0 0 0 0 0 0 0 0 0 0 0 0 0 0 -0 0 0 0 0 0 0 0 0 0 0 0 -0 -0 0 0 0 0 -0 -0 -0 -0 -0 -0
0 0 0 0 0 0 0 0 0 0 0 0 0 0 0 0 0 0 0 0 0 0 0 0 0 0 0 0 0 0 0 0 0 0 0 0 0 -0 -0 -0 -0 -0 -0 -0 0 0 0
0 0 0 0 0 0 0 0 0 0 0 0 0 0 0 0 0 0 0 0 0 0 0 0 0 0 0 0 0 0 0 0 0 0 0 0 0 0 0 0 0 0 0 0 0 0 0
0 0 0 0 0 0 0 0 0 0 0 0 0 0 0 0 0 0 0 0 0 0 0 0 0 0 0 0 0 0 0 0 0 0 0 0 0 0 0 0 0 0 0 0 0 0 0
0 0 0 0 0 0 0 0 0 0 0 0 0 0 0 0 0 0 0 0 0 0 0 0 0 0 0 0 0 0 0 0 0 0 0 0 0 -0 0 0 0 0 -0 0 0 0 0
0 0 0 0 0 0 0 0 0 0 0 0 0 0 0 0 0 0 0 0 0 0 0 0 0 0 0 0 0 0 0 0 0 0 0 0 0 0 0 0 -0 0 0 0 0 0 0
0 0 0 0 0 0 0 0 0 0 0 0 0 0 0 0 0 0 0 0 0 0 0 0 0 0 0 0 0 0 0 0 0 0 0 0 0 0 0 0 0 0 0 0 0 0 0
0 0 0 0 0 0 0 0 0 0 0 0 0 0 0 0 0 0 0 0 0 0 0 0 0 0 0 0 0 0 0 0 0 0 0 0 0 0 0 0 0 0 0 0 0 0 0
0 0 0 0 0 0 0 0 0 0 0 0 0 0 0 0 0 0 0 0 0 0 0 0 0 0 0 0 0 0 0 0 0 0 0 0 0 0 0 0 0 -0 -0 0 0 0 0
0 0 0 0 0 0 0 0 0 0 0 0 0 0 0 1 0 0 0 0 0 0 0 0 0 0 0 0 0 0 0 0 0 0 0 0 0 0 0 0 0 0 -0 -0 0 0 0
0 0 0 0 0 0 0 0 0 0 0 1 0 0 0 0 0 0 0 0 0 0 0 0 0 0 0 0 0 0 0 0 0 0 0 0 0 0 0 0 0 0 0 0 0 0 0
0 0 0 0 0 0 0 0 0 0 0 0 0 0 0 0 0 0 0 0 0 0 0 0 0 0 0 0 0 0 0 0 0 0 0 0 0 0 0 0 0 0 -0 0 0 0 0
0 0 0 0 0 0 0 0 0 0 0 0 0 0 0 0 0 0 0 0 0 0 0 0 0 0 0 0 0 0 0 0 0 0 0 0 0 0 0 0 0 0 -0 -0 0 -0 -0
0 0 0 0 0 0 0 0 0 0 0 0 0 0 0 0 0 0 0 0 0 0 0 0 0 0 0 0 0 0 0 0 0 0 0 0 0 0 0 0 0 0 -0 0 0 0 0
0 0 0 0 0 0 0 0 0 0 0 0 0 0 0 0 0 0 0 0 0 0 0 0 0 0 0 0 0 0 0 0 0 0 0 0 0 0 0 0 0 0 0 0 -0 0 0
0 0 0 0 0 0 0 0 0 0 0 0 0 0 0 0 0 0 0 0 0 0 0 0 0 0 0 0 0 0 0 0 0 0 0 0 0 0 0 0 0 0 0 0 0 0 0
-0 0 0 0 0 0 0 0 0 0 0 0 0 1 0 0 0 0 0 0 0 0 0 0 0 0 0 0 0 0 0 0 0 0 0 0 0 0 0 0 0 0 0 0 0 -0 0
-0 0 0 0 0 0 0 0 0 0 0 0 0 0 1 0 0 0 0 0 0 0 0 0 0 0 0 0 0 0 0 0 0 0 0 0 0 0 0 0 0 0 0 0 0 -0 0
0 0 0 0 0 0 0 0 0 0 0 0 0 0 1 0 0 0 0 0 0 0 0 0 0 0 0 0 0 0 0 0 0 0 0 0 0 0 0 0 0 0 0 0 0 0 0
0 0 0 0 0 0 0 0 0 0 0 0 0 0 0 0 0 0 0 0 0 0 0 0 0 0 0 0 0 0 0 0 0 0 0 0 0 0 0 0 0 0 0 0 0 0 0
Wind_Speed_500mb
48 49 47 47 43 43 42 42 43 45 42 46 55 53 47 46 47 46 45 41 35 38 40 41 39 40 42 17 23 25 22 13 15 21 19 18 20 15 15 8 11 22 17 13 24 25 17
48 43 49 51 49 45 47 42 43 44 42 42 41 48 54 49 46 44 45 43 38 38 39 41 40 39 32 26 18 16 19 19 19 21 18 18 11 6 10 11 16 7 24 22 11 2 4
57 55 49 47 53 51 47 45 46 48 48 44 40 40 46 52 51 47 47 44 41 38 40 41 42 41 38 43 29 21 21 23 21 20 14 17 7 10 3 11 8 22 25 8 5 8 6
52 51 59 58 49 51 54 48 45 44 46 49 45 41 40 42 47 42 41 43 41 38 41 41 42 38 26 29 27 25 29 28 24 18 15 15 9 8 10 8 16 20 11 21 14 15 8
57 58 54 57 66 56 50 54 50 45 43 45 48 45 42 37 37 42 36 36 37 37 41 44 36 18 26 26 30 26 35 28 23 18 21 12 10 12 10 21 18 20 20 12 13 15 8
68 66 62 56 53 67 60 52 53 49 45 42 43 44 44 40 33 35 33 30 34 36 41 37 29 14 34 10 10 16 36 32 12 21 14 15 16 17 16 18 16 15 16 16 8 16 17
72 72 73 70 66 58 62 67 52 52 50 43 41 40 41 37 32 25 20 14 15 11 17 25 8 12 6 7 12 19 28 34 26 23 22 20 18 20 10 9 12 8 12 10 6 7 12
84 82 77 74 73 68 60 59 65 54 52 47 42 39 34 29 26 20 15 12 12 11 24 38 49 57 53 21 8 19 30 34 32 29 17 13 23 12 6 10 13 16 17 12 7 8 9
83 84 81 78 77 77 69 61 57 60 54 50 43 40 33 23 21 24 21 18 21 16 16 23 39 40 40 42 31 31 37 42 36 34 28 26 5 5 17 17 17 17 17 6 5 5 15
89 86 82 80 78 80 75 66 58 65 58 49 49 41 35 21 22 19 19 19 17 5 10 10 16 16 31 24 23 51 45 41 18 39 28 23 20 14 18 20 20 20 13 12 12 14 13
89 91 95 91 83 78 79 72 61 59 70 57 44 45 38 37 14 18 11 18 16 12 12 14 9 11 15 42 22 43 51 36 39 26 20 22 20 22 25 25 17 13 9 11 15 16 11
92 92 90 91 93 88 81 78 70 63 65 71 53 49 42 41 40 28 24 30 20 10 19 7 13 15 17 35 15 37 37 28 40 25 21 19 8 10 9 7 16 8 13 9 9 7 14
90 93 93 92 91 90 89 81 76 65 60 70 66 50 50 39 38 34 34 20 11 17 4 13 10 15 24 24 21 33 45 42 33 35 30 28 25 9 12 16 13 20 18 12 9 10 8
95 94 93 92 91 88 86 87 78 73 60 62 71 51 58 49 38 37 29 8 27 13 22 2 7 15 19 32 18 40 43 42 44 37 29 30 27 27 22 22 16 30 21 9 10 8 8
100 93 91 95 91 91 89 85 84 75 62 53 71 64 63 58 55 38 36 26 22 26 14 12 13 12 14 29 13 32 42 47 43 41 22 32 26 10 16 9 15 15 16 2 4 3 5
96 92 95 94 96 95 92 90 86 80 66 54 74 66 72 59 61 47 23 47 31 19 13 13 20 20 23 24 21 31 40 40 48 41 34 15 22 10 14 13 8 12 20 11 7 9 10
99 102 99 97 95 96 94 94 91 84 73 60 66 32 44 62 60 39 32 39 47 33 18 9 20 10 12 23 35 34 33 12 46 41 36 21 15 13 12 22 25 13 12 3 2 5 7
89 87 90 99 100 101 97 98 98 89 82 73 66 16 50 76 34 21 38 62 31 45 26 13 6 8 10 17 28 35 34 33 53 49 44 32 16 16 25 8 7 13 19 21 11 11 5
94 93 88 89 92 92 105 99 104 102 101 89 48 18 55 87 27 31 45 56 57 37 44 15 14 11 5 7 14 33 22 23 29 43 43 29 20 17 18 12 10 16 21 22 12 5 22
93 92 91 91 94 95 95 105 110 119 112 96 40 12 27 72 83 57 41 47 60 63 33 42 11 14 6 7 11 10 16 5 26 46 33 47 26 38 25 23 19 23 28 29 26 13 21
101 102 101 96 96 96 98 112 114 135 120 100 44 19 36 33 41 55 57 43 60 40 60 35 33 23 22 8 4 9 6 9 11 9 17 25 35 31 31 27 27 33 29 31 34 33 30
104 101 100 102 97 100 97 98 127 145 124 99 23 41 58 39 77 65 53 50 60 62 47 46 29 38 20 7 3 8 4 4 4 9 14 12 21 24 32 28 25 32 32 34 34 33 23
79 84 90 101 104 101 99 105 133 146 132 76 53 50 60 36 50 43 47 55 52 56 50 59 37 17 25 29 21 19 13 13 8 4 13 12 15 13 24 12 11 13 30 31 29 28 30
84 88 91 93 102 105 101 105 150 152 141 84 61 62 40 27 29 43 59 48 58 52 50 25 52 33 19 11 19 12 12 20 19 16 21 12 23 12 11 8 14 15 5 28 36 32 32
96 101 97 94 103 103 103 102 153 150 140 84 78 56 40 19 36 42 54 61 47 50 51 41 23 40 30 7 9 14 7 7 15 13 19 24 15 9 10 19 21 11 11 17 23 33 35
78 96 104 100 104 102 105 98 151 140 140 78 78 67 33 24 31 52 43 60 40 36 38 38 38 22 26 7 10 18 16 14 14 14 5 14 15 12 8 13 17 15 28 30 12 26 21
55 84 97 94 102 101 106 118 156 131 131 79 78 63 47 30 23 49 38 46 70 44 28 35 26 22 21 8 7 10 14 9 16 16 12 9 6 21 16 11 10 7 17 28 18 30 5
60 76 83 96 94 101 109 150 143 126 124 78 72 62 48 35 31 20 43 49 73 53 27 44 23 13 14 16 13 10 8 9 10 12 12 17 17 9 12 11 20 23 23 20 26 8 17
56 69 80 84 89 94 134 142 129 124 116 88 60 68 46 17 12 11 27 37 52 73 48 51 24 39 22 14 11 9 6 2 14 17 11 11 9 4 15 10 4 53 32 45 14 17 18
Wind_Direction_500mb
286 283 282 281 274 274 276 275 273 272 274 268 262 259 266 270 275 278 285 285 290 300 308 311 315 317 324 302 269 258 226 226 202 194 200 196 201 212 234 227 228 245 267 299 305 295 271
266 274 282 280 279 274 274 274 273 269 268 272 272 267 266 265 271 274 278 282 284 288 299 303 310 314 317 275 267 254 225 204 191 188 203 193 200 218 257 256 252 317 286 294 289 289 183
271 262 262 273 277 276 273 270 272 273 267 265 266 270 267 268 265 269 276 276 278 282 290 297 303 309 296 267 264 248 211 189 185 195 192 193 204 227 219 233 259 282 281 217 218 170 169
282 283 263 256 263 273 273 274 270 271 272 266 265 265 269 273 273 271 273 278 275 278 284 291 297 301 265 272 251 229 209 199 182 188 179 182 199 261 243 281 249 260 258 252 139 172 154
281 279 279 269 259 259 269 270 269 268 268 271 263 263 265 270 272 271 273 273 282 275 284 287 291 277 267 262 246 238 209 199 210 211 193 192 199 248 227 248 247 217 260 241 151 205 178
280 279 277 278 274 259 258 264 268 266 265 266 270 260 262 264 271 269 273 273 284 282 277 277 258 267 247 232 194 194 199 190 176 169 165 199 217 237 222 240 253 208 226 219 226 168 219
272 273 275 276 276 270 260 253 259 264 263 263 267 266 257 261 268 270 280 289 285 260 236 220 232 234 275 264 211 191 183 182 193 198 207 198 226 226 236 233 311 247 228 234 105 110 227
277 271 267 267 270 270 266 262 249 259 261 259 255 265 261 253 257 255 231 244 244 271 292 259 248 251 249 264 293 199 184 184 194 204 183 199 227 230 242 238 244 236 220 209 150 142 248
277 274 271 266 264 265 264 264 263 241 253 254 252 253 260 243 237 227 220 240 259 291 269 269 234 236 237 217 228 215 186 200 200 203 201 224 119 199 205 208 225 232 264 195 308 202 241
274 272 270 270 264 261 262 259 260 236 246 246 245 244 249 223 235 228 228 235 251 223 273 232 214 230 196 190 227 214 201 192 199 208 201 229 221 224 228 240 234 237 223 250 240 267 262
271 266 265 265 263 260 257 256 254 248 237 248 237 236 241 200 200 187 177 208 208 187 274 125 166 159 182 188 135 191 192 197 203 189 189 203 193 206 228 238 217 253 171 243 268 277 258
270 266 263 262 258 256 254 251 251 247 235 236 241 231 230 217 205 177 146 141 139 222 240 182 155 180 164 205 213 153 170 199 209 181 215 210 151 201 224 198 227 141 179 215 233 236 234
268 265 262 259 254 253 249 248 245 244 241 229 234 221 223 211 215 179 166 142 188 231 73 171 184 178 202 183 203 185 176 187 184 189 200 196 205 182 199 202 179 205 196 217 200 198 241
267 264 259 255 252 248 247 244 240 240 235 230 223 222 225 217 212 191 184 186 223 229 222 347 156 188 199 176 204 192 182 190 203 200 194 198 199 206 186 229 218 203 216 229 239 203 168
268 263 261 251 249 247 244 241 236 234 228 231 217 222 221 216 207 197 193 205 215 206 206 223 148 173 213 194 197 187 198 198 193 201 189 199 204 142 195 190 227 172 215 344 141 50 259
262 261 259 252 246 244 241 237 232 228 219 218 213 218 217 214 209 215 205 221 214 205 209 223 213 200 185 205 197 198 192 209 199 201 207 196 203 192 148 177 179 272 142 178 217 216 233
262 265 257 249 242 241 237 233 228 220 211 207 205 209 211 201 205 224 213 213 219 198 203 213 211 214 223 182 209 202 194 181 197 198 208 194 220 151 181 205 198 175 198 228 291 279 262
261 258 252 247 243 238 233 228 223 214 202 198 190 202 184 186 190 227 221 208 205 212 197 213 254 236 226 199 204 210 208 213 199 185 192 196 208 203 204 96 273 264 227 205 234 189 228
262 258 252 245 234 233 231 224 219 209 195 186 190 164 177 179 192 223 225 217 217 189 207 199 215 227 226 217 205 216 216 197 187 194 200 178 209 207 199 190 191 211 207 223 236 264 231
264 257 250 240 233 230 225 219 216 205 193 185 180 164 156 195 206 206 209 218 210 216 217 215 219 220 237 231 215 208 218 170 191 204 203 181 203 215 224 227 207 205 217 213 220 228 256
264 256 248 240 229 225 219 219 213 201 192 181 183 185 174 187 205 203 217 209 206 197 214 205 210 227 211 225 169 185 187 145 149 173 195 203 217 215 233 246 248 237 239 222 226 234 250
260 248 239 235 226 222 217 215 204 199 191 183 188 185 180 180 201 201 200 216 208 205 194 202 216 207 216 221 48 124 36 82 122 163 172 190 215 214 225 228 231 241 243 250 234 254 257
240 238 230 227 220 216 213 209 200 197 187 186 208 190 178 209 197 203 202 204 216 203 212 207 200 188 209 238 271 278 313 305 311 298 181 191 195 185 226 212 221 252 238 238 229 226 234
246 235 226 218 213 209 206 204 193 195 188 187 188 187 196 192 179 200 207 198 207 211 206 188 207 212 215 246 318 294 268 261 265 249 230 188 201 196 224 170 228 255 268 231 228 235 233
243 231 220 210 205 202 200 199 190 195 188 188 188 188 188 200 196 192 202 204 203 205 211 208 181 220 214 214 226 256 241 233 229 236 214 217 192 163 170 215 255 225 199 193 197 244 235
232 210 203 200 198 194 196 193 185 191 184 183 186 187 188 190 203 200 185 198 203 189 192 198 203 159 142 171 194 215 221 208 191 165 170 183 243 234 166 218 225 229 218 206 207 255 235
151 173 180 183 188 186 194 189 184 187 178 177 177 184 192 199 194 193 192 190 206 184 188 182 168 174 168 194 196 205 217 238 202 194 170 162 183 210 210 234 246 216 156 157 207 252 259
131 153 163 176 174 179 177 179 182 184 175 168 177 174 176 189 189 191 203 195 197 184 184 174 157 182 179 196 205 187 217 213 228 207 177 181 176 181 205 217 239 150 142 201 227 227 222
123 140 154 159 172 174 175 176 181 177 176 179 172 186 185 175 138 177 203 205 203 194 181 177 183 166 171 178 198 213 197 206 209 221 196 220 208 220 215 223 123 185 214 221 230 245 215
Wind_Speed_850mb
48 49 47 47 43 43 42 42 43 45 42 46 55 53 47 46 47 46 45 41 35 38 40 41 39 40 42 17 23 25 22 13 15 21 19 18 20 15 15 8 11 22 17 13 24 25 17
48 43 49 51 49 45 47 42 43 44 42 42 41 48 54 49 46 44 45 43 38 38 39 41 40 39 32 26 18 16 19 19 19 21 18 18 11 6 10 11 16 7 24 22 11 2 4
57 55 49 47 53 51 47 45 46 48 48 44 40 40 46 52 51 47 47 44 41 38 40 41 42 41 38 43 29 21 21 23 21 20 14 17 7 10 3 11 8 22 25 8 5 8 6
52 51 59 58 49 51 54 48 45 44 46 49 45 41 40 42 47 42 41 43 41 38 41 41 42 38 26 29 27 25 29 28 24 18 15 15 9 8 10 8 16 20 11 21 14 15 8
57 58 54 57 66 56 50 54 50 45 43 45 48 45 42 37 37 42 36 36 37 37 41 44 36 18 26 26 30 26 35 28 23 18 21 12 10 12 10 21 18 20 20 12 13 15 8
68 66 62 56 53 67 60 52 53 49 45 42 43 44 44 40 33 35 33 30 34 36 41 37 29 14 34 10 10 16 36 32 12 21 14 15 16 17 16 18 16 15 16 16 8 16 17
72 72 73 70 66 58 62 67 52 52 50 43 41 40 41 37 32 25 20 14 15 11 17 25 8 12 6 7 12 19 28 34 26 23 22 20 18 20 10 9 12 8 12 10 6 7 12
84 82 77 74 73 68 60 59 65 54 52 47 42 39 34 29 26 20 15 12 12 11 24 38 49 57 53 21 8 19 30 34 32 29 17 13 23 12 6 10 13 16 17 12 7 8 9
83 84 81 78 77 77 69 61 57 60 54 50 43 40 33 23 21 24 21 18 21 16 16 23 39 40 40 42 31 31 37 42 36 34 28 26 5 5 17 17 17 17 17 6 5 5 15
89 86 82 80 78 80 75 66 58 65 58 49 49 41 35 21 22 19 19 19 17 5 10 10 16 16 31 24 23 51 45 41 18 39 28 23 20 14 18 20 20 20 13 12 12 14 13
89 91 95 91 83 78 79 72 61 59 70 57 44 45 38 37 14 18 11 18 16 12 12 14 9 11 15 42 22 43 51 36 39 26 20 22 20 22 25 25 17 13 9 11 15 16 11
92 92 90 91 93 88 81 78 70 63 65 71 53 49 42 41 40 28 24 30 20 10 19 7 13 15 17 35 15 37 37 28 40 25 21 19 8 10 9 7 16 8 13 9 9 7 14
90 93 93 92 91 90 89 81 76 65 60 70 66 50 50 39 38 34 34 20 11 17 4 13 10 15 24 24 21 33 45 42 33 35 30 28 25 9 12 16 13 20 18 12 9 10 8
95 94 93 92 91 88 86 87 78 73 60 62 71 51 58 49 38 37 29 8 27 13 22 2 7 15 19 32 18 40 43 42 44 37 29 30 27 27 22 22 16 30 21 9 10 8 8
100 93 91 95 91 91 89 85 84 75 62 53 71 64 63 58 55 38 36 26 22 26 14 12 13 12 14 29 13 32 42 47 43 41 22 32 26 10 16 9 15 15 16 2 4 3 5
96 92 95 94 96 95 92 90 86 80 66 54 74 66 72 59 61 47 23 47 31 19 13 13 20 20 23 24 21 31 40 40 48 41 34 15 22 10 14 13 8 12 20 11 7 9 10
99 102 99 97 95 96 94 94 91 84 73 60 66 32 44 62 60 39 32 39 47 33 18 9 20 10 12 23 35 34 33 12 46 41 36 21 15 13 12 22 25 13 12 3 2 5 7
89 87 90 99 100 101 97 98 98 89 82 73 66 16 50 76 34 21 38 62 31 45 26 13 6 8 10 17 28 35 34 33 53 49 44 32 16 16 25 8 7 13 19 21 11 11 5
94 93 88 89 92 92 105 99 104 102 101 89 48 18 55 87 27 31 45 56 57 37 44 15 14 11 5 7 14 33 22 23 29 43 43 29 20 17 18 12 10 16 21 22 12 5 22
93 92 91 91 94 95 95 105 110 119 112 96 40 12 27 72 83 57 41 47 60 63 33 42 11 14 6 7 11 10 16 5 26 46 33 47 26 38 25 23 19 23 28 29 26 13 21
101 102 101 96 96 96 98 112 114 135 120 100 44 19 36 33 41 55 57 43 60 40 60 35 33 23 22 8 4 9 6 9 11 9 17 25 35 31 31 27 27 33 29 31 34 33 30
104 101 100 102 97 100 97 98 127 145 124 99 23 41 58 39 77 65 53 50 60 62 47 46 29 38 20 7 3 8 4 4 4 9 14 12 21 24 32 28 25 32 32 34 34 33 23
79 84 90 101 104 101 99 105 133 146 132 76 53 50 60 36 50 43 47 55 52 56 50 59 37 17 25 29 21 19 13 13 8 4 13 12 15 13 24 12 11 13 30 31 29 28 30
84 88 91 93 102 105 101 105 150 152 141 84 61 62 40 27 29 43 59 48 58 52 50 25 52 33 19 11 19 12 12 20 19 16 21 12 23 12 11 8 14 15 5 28 36 32 32
96 101 97 94 103 103 103 102 153 150 140 84 78 56 40 19 36 42 54 61 47 50 51 41 23 40 30 7 9 14 7 7 15 13 19 24 15 9 10 19 21 11 11 17 23 33 35
78 96 104 100 104 102 105 98 151 140 140 78 78 67 33 24 31 52 43 60 40 36 38 38 38 22 26 7 10 18 16 14 14 14 5 14 15 12 8 13 17 15 28 30 12 26 21
55 84 97 94 102 101 106 118 156 131 131 79 78 63 47 30 23 49 38 46 70 44 28 35 26 22 21 8 7 10 14 9 16 16 12 9 6 21 16 11 10 7 17 28 18 30 5
60 76 83 96 94 101 109 150 143 126 124 78 72 62 48 35 31 20 43 49 73 53 27 44 23 13 14 16 13 10 8 9 10 12 12 17 17 9 12 11 20 23 23 20 26 8 17
56 69 80 84 89 94 134 142 129 124 116 88 60 68 46 17 12 11 27 37 52 73 48 51 24 39 22 14 11 9 6 2 14 17 11 11 9 4 15 10 4 53 32 45 14 17 18
Wind_Direction_850mb
286 283 282 281 274 274 276 275 273 272 274 268 262 259 266 270 275 278 285 285 290 300 308 311 315 317 324 302 269 258 226 226 202 194 200 196 201 212 234 227 228 245 267 299 305 295 271
266 274 282 280 279 274 274 274 273 269 268 272 272 267 266 265 271 274 278 282 284 288 299 303 310 314 317 275 267 254 225 204 191 188 203 193 200 218 257 256 252 317 286 294 289 289 183
271 262 262 273 277 276 273 270 272 273 267 265 266 270 267 268 265 269 276 276 278 282 290 297 303 309 296 267 264 248 211 189 185 195 192 193 204 227 219 233 259 282 281 217 218 170 169
282 283 263 256 263 273 273 274 270 271 272 266 265 265 269 273 273 271 273 278 275 278 284 291 297 301 265 272 251 229 209 199 182 188 179 182 199 261 243 281 249 260 258 252 139 172 154
281 279 279 269 259 259 269 270 269 268 268 271 263 263 265 270 272 271 273 273 282 275 284 287 291 277 267 262 246 238 209 199 210 211 193 192 199 248 227 248 247 217 260 241 151 205 178
280 279 277 278 274 259 258 264 268 266 265 266 270 260 262 264 271 269 273 273 284 282 277 277 258 267 247 232 194 194 199 190 176 169 165 199 217 237 222 240 253 208 226 219 226 168 219
272 273 275 276 276 270 260 253 259 264 263 263 267 266 257 261 268 270 280 289 285 260 236 220 232 234 275 264 211 191 183 182 193 198 207 198 226 226 236 233 311 247 228 234 105 110 227
277 271 267 267 270 270 266 262 249 259 261 259 255 265 261 253 257 255 231 244 244 271 292 259 248 251 249 264 293 199 184 184 194 204 183 199 227 230 242 238 244 236 220 209 150 142 248
277 274 271 266 264 265 264 264 263 241 253 254 252 253 260 243 237 227 220 240 259 291 269 269 234 236 237 217 228 215 186 200 200 203 201 224 119 199 205 208 225 232 264 195 308 202 241
274 272 270 270 264 261 262 259 260 236 246 246 245 244 249 223 235 228 228 235 251 223 273 232 214 230 196 190 227 214 201 192 199 208 201 229 221 224 228 240 234 237 223 250 240 267 262
271 266 265 265 263 260 257 256 254 248 237 248 237 236 241 200 200 187 177 208 208 187 274 125 166 159 182 188 135 191 192 197 203 189 189 203 193 206 228 238 217 253 171 243 268 277 258
270 266 263 262 258 256 254 251 251 247 235 236 241 231 230 217 205 177 146 141 139 222 240 182 155 180 164 205 213 153 170 199 209 181 215 210 151 201 224 198 227 141 179 215 233 236 234
268 265 262 259 254 253 249 248 245 244 241 229 234 221 223 211 215 179 166 142 188 231 73 171 184 178 202 183 203 185 176 187 184 189 200 196 205 182 199 202 179 205 196 217 200 198 241
267 264 259 255 252 248 247 244 240 240 235 230 223 222 225 217 212 191 184 186 223 229 222 347 156 188 199 176 204 192 182 190 203 200 194 198 199 206 186 229 218 203 216 229 239 203 168
268 263 261 251 249 247 244 241 236 234 228 231 217 222 221 216 207 197 193 205 215 206 206 223 148 173 213 194 197 187 198 198 193 201 189 199 204 142 195 190 227 172 215 344 141 50 259
262 261 259 252 246 244 241 237 232 228 219 218 213 218 217 214 209 215 205 221 214 205 209 223 213 200 185 205 197 198 192 209 199 201 207 196 203 192 148 177 179 272 142 178 217 216 233
262 265 257 249 242 241 237 233 228 220 211 207 205 209 211 201 205 224 213 213 219 198 203 213 211 214 223 182 209 202 194 181 197 198 208 194 220 151 181 205 198 175 198 228 291 279 262
261 258 252 247 243 238 233 228 223 214 202 198 190 202 184 186 190 227 221 208 205 212 197 213 254 236 226 199 204 210 208 213 199 185 192 196 208 203 204 96 273 264 227 205 234 189 228
262 258 252 245 234 233 231 224 219 209 195 186 190 164 177 179 192 223 225 217 217 189 207 199 215 227 226 217 205 216 216 197 187 194 200 178 209 207 199 190 191 211 207 223 236 264 231
264 257 250 240 233 230 225 219 216 205 193 185 180 164 156 195 206 206 209 218 210 216 217 215 219 220 237 231 215 208 218 170 191 204 203 181 203 215 224 227 207 205 217 213 220 228 256
264 256 248 240 229 225 219 219 213 201 192 181 183 185 174 187 205 203 217 209 206 197 214 205 210 227 211 225 169 185 187 145 149 173 195 203 217 215 233 246 248 237 239 222 226 234 250
260 248 239 235 226 222 217 215 204 199 191 183 188 185 180 180 201 201 200 216 208 205 194 202 216 207 216 221 48 124 36 82 122 163 172 190 215 214 225 228 231 241 243 250 234 254 257
240 238 230 227 220 216 213 209 200 197 187 186 208 190 178 209 197 203 202 204 216 203 212 207 200 188 209 238 271 278 313 305 311 298 181 191 195 185 226 212 221 252 238 238 229 226 234
246 235 226 218 213 209 206 204 193 195 188 187 188 187 196 192 179 200 207 198 207 211 206 188 207 212 215 246 318 294 268 261 265 249 230 188 201 196 224 170 228 255 268 231 228 235 233
243 231 220 210 205 202 200 199 190 195 188 188 188 188 188 200 196 192 202 204 203 205 211 208 181 220 214 214 226 256 241 233 229 236 214 217 192 163 170 215 255 225 199 193 197 244 235
232 210 203 200 198 194 196 193 185 191 184 183 186 187 188 190 203 200 185 198 203 189 192 198 203 159 142 171 194 215 221 208 191 165 170 183 243 234 166 218 225 229 218 206 207 255 235
151 173 180 183 188 186 194 189 184 187 178 177 177 184 192 199 194 193 192 190 206 184 188 182 168 174 168 194 196 205 217 238 202 194 170 162 183 210 210 234 246 216 156 157 207 252 259
131 153 163 176 174 179 177 179 182 184 175 168 177 174 176 189 189 191 203 195 197 184 184 174 157 182 179 196 205 187 217 213 228 207 177 181 176 181 205 217 239 150 142 201 227 227 222
123 140 154 159 172 174 175 176 181 177 176 179 172 186 185 175 138 177 203 205 203 194 181 177 183 166 171 178 198 213 197 206 209 221 196 220 208 220 215 223 123 185 214 221 230 245 215